Regional Weather Roundup
Issued by NWS Newport/Morehead, NC

Current Version | Previous Version | Text Only | Print | Product List | Glossary On
Versions: 1 2 3 4 5 6 7 8 9 10 11 12 13 14 15 16 17 18 19 20 21 22 23 24 25 26 27 28 29 30 31 32 33 34 35 36 37 38 39 40 41 42 43 44 45 46 47 48 49 50
151 ASUS42 KMHX 240125 RWRMHX WEATHER ROUNDUP FOR EASTERN NORTH CAROLINA NATIONAL WEATHER SERVICE NEWPORT/MOREHEAD CITY NC 800 PM EST THU FEB 23 2017 NOTE: "FAIR" INDICATES FEW OR NO CLOUDS BELOW 12,000 FEET WITH NO SIGNIFICANT WEATHER AND/OR OBSTRUCTIONS TO VISIBILITY NCZ015>017-031-032-045>047-102-103-240200- NORTH COAST CITY SKY/WX TMP DP RH WIND PRES REMARKS EDENTON CLOUDY 58 54 85 CALM 29.95R ELIZABETH CITY CLOUDY 58 54 86 SE3 29.95R KITTY HAWK NOT AVBL MANTEO CLOUDY 57 54 89 CALM 29.95R $$ NCZ045>047-081-094-103-104-240200- CENTRAL COAST CITY SKY/WX TMP DP RH WIND PRES REMARKS FRISCO CLOUDY 67 59 75 SE8 29.93S HAZE $$ NCZ095-097-098-100-101-240200- SOUTHERN COAST CITY SKY/WX TMP DP RH WIND PRES REMARKS BEAUFORT CLOUDY 64 60 87 E3 29.92R CEDAR ISLAND NOT AVBL JACKSONVILLE MOCLDY 62 59 90 E5 29.90S PINEY ISLAND MOCLDY N/A N/A N/A NE5 29.92S WILMINGTON PTCLDY 59 57 93 NE6 29.90R $$ NCZ011>013-027>030-043-044-078>080-089-090>093-098-240200- COASTAL PLAIN CITY SKY/WX TMP DP RH WIND PRES REMARKS AHOSKIE N/A 59 53 80 CALM 29.93S CLINTON CLEAR 60 56 85 CALM 29.91S ELIZABETHTOWN CLEAR 62 55 80 CALM 29.91R GOLDSBORO CLEAR 64 56 76 SE3 29.90R GREENVILLE CLOUDY 63 57 82 CALM 29.95S HAVELOCK CLEAR 63 57 82 CALM 29.93R KENANSVILLE CLOUDY 59 54 82 CALM 29.92R KINSTON CLOUDY 64 57 77 SE3 29.93R NEW BERN PTCLDY 59 58 96 CALM 29.93S RICHLANDS CLOUDY 58 55 90 CALM 29.92S ROCKY MOUNT PTCLDY 64 55 72 VRB5 29.91S WASHINGTON MOCLDY 60 56 86 CALM 29.94R WHITEVILLE CLOUDY 64 57 76 CALM 29.89S $$ AMZ130-135-150-152-154-156-158-170-250-252-270-ANZ085-086-088-633-658-670-240200- MARINE OBSERVATIONS STATION/POSITION TIME TEMP WIND PRES WAVE SWELL AIR SEA DIR/SP/G HT/PER HT/PER (UTC) (F) (DEG/KT/KT) (MB) (FT/S) (FT/S) CHESAPEAKE LIGHT NOT AVBL 64 E VA BEACH 0050 58 54 170/ 6/ 8 1014.1 3/10 3/10 DUCK 0100 56 50 140/ 6/ 6 1013.4 2 E DUCK 0100 51 N/A 3/11 2/11 OREGON INLET 0100 56 56 70/ 4/ 5 1013.7 13E OREGON INLT NOT AVBL HATTERAS CG 0100 67 62 120/ 5/ 8 1013.1 DIAMOND BUOY 0050 70 74 130/ 12/ 16 1013.3 6/ 6 3/11 CAPE LOOKOUT 0100 66 120/ 9/ 10 1012.5 BEAUFORT LAB 0100 65 57 90/ 1/ 2 1012.1 30 SE NEW RVR IN 0108 69 100/ 4/ 8 1012.5 30 SE NEW RVR IN 0043 69 N/A 5/ 7 2/12 27 SE WRIGHTSVLE 0108 68 67 110/ 6/ 10 1011.3 5 SE WRIGHTSVLE 0108 60 58 50/ 6/ 10 1012.3 225 S CAPE HAT 0050 68 69 100/ 23/ 29 1010.2 9/ 8 7/ 8 41 SE CHARLESTON 0050 71 70 60/ 14/ 16 1009.6 9/ 9 8/ 9 $$

USA.gov is the U.S. government's official web portal to all federal, state and local government web resources and services.